Time,TemperatureF,DewpointF,PressureIn,WindDirection,WindDirectionDegrees,WindSpeedMPH,WindSpeedGustMPH,Humidity,HourlyPrecipIn,Conditions,Clouds,dailyrainin,SoftwareType,DateUTC
2013-02-10 00:01:00,25.0,23.0,-100.00,SE,140,2.0,4.0,93,-99.99,,,-99.99,,2013-02-10 05:01:00,
2013-02-10 00:11:00,25.0,23.0,-100.00,SSE,160,2.0,6.0,94,-99.99,,,-99.99,,2013-02-10 05:11:00,
2013-02-10 00:22:00,25.0,23.0,-100.00,ESE,115,3.0,6.0,94,-99.99,,,-99.99,,2013-02-10 05:22:00,
2013-02-10 00:32:00,25.0,23.0,-100.00,ESE,115,3.0,6.0,94,-99.99,,,-99.99,,2013-02-10 05:32:00,
2013-02-10 00:41:00,24.0,23.0,-100.00,ENE,70,1.0,2.0,94,-99.99,,,-99.99,,2013-02-10 05:41:00,
2013-02-10 00:52:00,24.0,23.0,-100.00,ENE,65,4.0,4.0,94,-99.99,,,-99.99,,2013-02-10 05:52:00,
2013-02-10 01:02:00,24.0,23.0,-100.00,SE,125,1.0,3.0,95,-99.99,,,-99.99,,2013-02-10 06:02:00,
2013-02-10 01:11:00,24.0,23.0,-100.00,ESE,105,3.0,4.0,95,-99.99,,,-99.99,,2013-02-10 06:11:00,
2013-02-10 01:21:00,24.0,23.0,-100.00,SE,125,3.0,4.0,95,-99.99,,,-99.99,,2013-02-10 06:21:00,
2013-02-10 01:32:00,24.0,23.0,-100.00,East,100,4.0,5.0,95,-99.99,,,-99.99,,2013-02-10 06:32:00,
2013-02-10 01:42:00,23.0,22.0,-100.00,ESE,110,1.0,4.0,96,-99.99,,,-99.99,,2013-02-10 06:42:00,
2013-02-10 01:51:00,23.0,22.0,-100.00,ENE,75,2.0,4.0,96,-99.99,,,-99.99,,2013-02-10 06:51:00,
2013-02-10 02:01:00,23.0,22.0,-100.00,ESE,110,2.0,5.0,96,-99.99,,,-99.99,,2013-02-10 07:01:00,
2013-02-10 02:11:00,23.0,22.0,-100.00,SE,125,2.0,4.0,96,-99.99,,,-99.99,,2013-02-10 07:11:00,
2013-02-10 02:21:00,23.0,22.0,-100.00,ESE,120,1.0,3.0,96,-99.99,,,-99.99,,2013-02-10 07:21:00,
2013-02-10 02:32:00,23.0,22.0,-100.00,ESE,110,1.0,2.0,96,-99.99,,,-99.99,,2013-02-10 07:32:00,
2013-02-10 02:42:00,23.0,22.0,-100.00,ESE,110,1.0,2.0,96,-99.99,,,-99.99,,2013-02-10 07:42:00,
2013-02-10 02:51:00,22.0,22.0,-100.00,East,95,2.0,4.0,96,-99.99,,,-99.99,,2013-02-10 07:51:00,
2013-02-10 03:01:00,22.0,22.0,-100.00,East,100,1.0,3.0,97,-99.99,,,-99.99,,2013-02-10 08:01:00,
2013-02-10 03:11:00,22.0,22.0,-100.00,East,90,2.0,3.0,97,-99.99,,,-99.99,,2013-02-10 08:11:00,
2013-02-10 03:21:00,22.0,22.0,-100.00,ESE,110,2.0,4.0,97,-99.99,,,-99.99,,2013-02-10 08:21:00,
2013-02-10 03:32:00,22.0,22.0,-100.00,East,100,2.0,4.0,97,-99.99,,,-99.99,,2013-02-10 08:32:00,
2013-02-10 03:43:00,23.0,22.0,-100.00,ESE,110,2.0,4.0,97,-99.99,,,-99.99,,2013-02-10 08:43:00,
2013-02-10 03:52:00,23.0,22.0,-100.00,ESE,115,4.0,6.0,97,-99.99,,,-99.99,,2013-02-10 08:52:00,
2013-02-10 04:02:00,23.0,23.0,-100.00,ESE,115,4.0,6.0,97,-99.99,,,-99.99,,2013-02-10 09:02:00,
2013-02-10 04:11:00,24.0,23.0,-100.00,ESE,110,2.0,5.0,97,-99.99,,,-99.99,,2013-02-10 09:11:00,
2013-02-10 04:21:00,24.0,23.0,-100.00,ESE,110,2.0,5.0,97,-99.99,,,-99.99,,2013-02-10 09:21:00,
2013-02-10 04:32:00,24.0,23.0,-100.00,SE,125,2.0,4.0,97,-99.99,,,-99.99,,2013-02-10 09:32:00,
2013-02-10 04:41:00,24.0,23.0,-100.00,ESE,110,1.0,4.0,97,-99.99,,,-99.99,,2013-02-10 09:41:00,
2013-02-10 04:51:00,24.0,23.0,-100.00,East,100,2.0,2.0,97,-99.99,,,-99.99,,2013-02-10 09:51:00,
2013-02-10 05:01:00,24.0,24.0,-100.00,East,100,1.0,2.0,97,-99.99,,,-99.99,,2013-02-10 10:01:00,
2013-02-10 05:11:00,24.0,24.0,-100.00,ENE,75,2.0,3.0,97,-99.99,,,-99.99,,2013-02-10 10:11:00,
2013-02-10 05:21:00,24.0,24.0,-100.00,East,100,2.0,4.0,97,-99.99,,,-99.99,,2013-02-10 10:21:00,
2013-02-10 05:32:00,25.0,24.0,-100.00,SE,125,2.0,4.0,97,-99.99,,,-99.99,,2013-02-10 10:32:00,
2013-02-10 05:42:00,25.0,24.0,-100.00,East,90,2.0,4.0,97,-99.99,,,-99.99,,2013-02-10 10:42:00,
2013-02-10 05:51:00,25.0,24.0,-100.00,ENE,70,1.0,3.0,97,-99.99,,,-99.99,,2013-02-10 10:51:00,
2013-02-10 06:01:00,25.0,24.0,-100.00,ENE,60,2.0,3.0,97,-99.99,,,-99.99,,2013-02-10 11:01:00,
2013-02-10 06:11:00,25.0,24.0,-100.00,ENE,60,0.0,5.0,97,-99.99,,,-99.99,,2013-02-10 11:11:00,
2013-02-10 06:22:00,24.0,24.0,-100.00,East,90,1.0,1.0,97,-99.99,,,-99.99,,2013-02-10 11:22:00,
2013-02-10 06:32:00,24.0,24.0,-100.00,East,90,1.0,1.0,97,-99.99,,,-99.99,,2013-02-10 11:32:00,
2013-02-10 06:42:00,24.0,24.0,-100.00,East,85,2.0,3.0,96,-99.99,,,-99.99,,2013-02-10 11:42:00,
2013-02-10 06:52:00,24.0,24.0,-100.00,East,85,2.0,3.0,96,-99.99,,,-99.99,,2013-02-10 11:52:00,
2013-02-10 07:02:00,24.0,23.0,-100.00,East,95,2.0,3.0,96,-99.99,,,-99.99,,2013-02-10 12:02:00,
2013-02-10 07:12:00,24.0,23.0,-100.00,East,100,0.0,2.0,96,-99.99,,,-99.99,,2013-02-10 12:12:00,
2013-02-10 07:21:00,24.0,24.0,-100.00,NE,50,3.0,4.0,96,-99.99,,,-99.99,,2013-02-10 12:21:00,
2013-02-10 07:32:00,24.0,24.0,-100.00,ENE,75,4.0,5.0,96,-99.99,,,-99.99,,2013-02-10 12:32:00,
2013-02-10 07:42:00,25.0,24.0,-100.00,East,95,4.0,7.0,96,-99.99,,,-99.99,,2013-02-10 12:42:00,
2013-02-10 07:52:00,25.0,24.0,-100.00,East,90,3.0,6.0,96,-99.99,,,-99.99,,2013-02-10 12:52:00,
2013-02-10 08:02:00,25.0,24.0,-100.00,East,80,4.0,5.0,96,-99.99,,,-99.99,,2013-02-10 13:02:00,
2013-02-10 08:11:00,26.0,25.0,-100.00,East,85,3.0,6.0,96,-99.99,,,-99.99,,2013-02-10 13:11:00,
2013-02-10 08:21:00,26.0,25.0,-100.00,ESE,110,2.0,6.0,96,-99.99,,,-99.99,,2013-02-10 13:21:00,
2013-02-10 08:31:00,26.0,26.0,-100.00,East,80,4.0,7.0,96,-99.99,,,-99.99,,2013-02-10 13:31:00,
2013-02-10 08:41:00,27.0,26.0,-100.00,East,80,3.0,6.0,95,-99.99,,,-99.99,,2013-02-10 13:41:00,
2013-02-10 08:51:00,27.0,26.0,-100.00,ENE,75,4.0,6.0,95,-99.99,,,-99.99,,2013-02-10 13:51:00,
2013-02-10 09:02:00,27.0,26.0,-100.00,ESE,105,2.0,6.0,94,-99.99,,,-99.99,,2013-02-10 14:02:00,
2013-02-10 09:11:00,28.0,26.0,-100.00,South,170,3.0,6.0,94,-99.99,,,-99.99,,2013-02-10 14:11:00,
2013-02-10 09:21:00,28.0,27.0,-100.00,SE,125,4.0,6.0,94,-99.99,,,-99.99,,2013-02-10 14:21:00,
2013-02-10 09:32:00,29.0,28.0,-100.00,SE,135,3.0,5.0,93,-99.99,,,-99.99,,2013-02-10 14:32:00,
2013-02-10 09:41:00,29.0,28.0,-100.00,SE,135,3.0,5.0,93,-99.99,,,-99.99,,2013-02-10 14:41:00,
2013-02-10 09:52:00,30.0,28.0,-100.00,SE,125,4.0,7.0,90,-99.99,,,-99.99,,2013-02-10 14:52:00,
2013-02-10 10:02:00,31.0,29.0,-100.00,ENE,70,4.0,7.0,89,-99.99,,,-99.99,,2013-02-10 15:02:00,
2013-02-10 10:11:00,32.0,29.0,-100.00,East,95,1.0,3.0,87,-99.99,,,-99.99,,2013-02-10 15:11:00,
2013-02-10 10:22:00,33.0,29.0,-100.00,ESE,105,2.0,4.0,86,-99.99,,,-99.99,,2013-02-10 15:22:00,
2013-02-10 10:32:00,34.0,30.0,-100.00,SE,125,4.0,6.0,84,-99.99,,,-99.99,,2013-02-10 15:32:00,
2013-02-10 10:42:00,34.0,30.0,-100.00,SE,125,4.0,6.0,84,-99.99,,,-99.99,,2013-02-10 15:42:00,
2013-02-10 10:52:00,35.0,29.0,-100.00,South,170,5.0,9.0,79,-99.99,,,-99.99,,2013-02-10 15:52:00,
2013-02-10 11:02:00,35.0,28.0,-100.00,SSE,150,4.0,10.0,75,-99.99,,,-99.99,,2013-02-10 16:02:00,
2013-02-10 11:12:00,36.0,28.0,-100.00,South,170,6.0,10.0,73,-99.99,,,-99.99,,2013-02-10 16:12:00,
2013-02-10 11:22:00,37.0,29.0,-100.00,SSE,160,6.0,11.0,71,-99.99,,,-99.99,,2013-02-10 16:22:00,
2013-02-10 11:32:00,38.0,29.0,-100.00,South,175,6.0,9.0,69,-99.99,,,-99.99,,2013-02-10 16:32:00,
2013-02-10 11:42:00,39.0,29.0,-100.00,South,180,6.0,9.0,67,-99.99,,,-99.99,,2013-02-10 16:42:00,
2013-02-10 11:52:00,39.0,29.0,-100.00,SSE,165,4.0,9.0,66,-99.99,,,-99.99,,2013-02-10 16:52:00,
2013-02-10 12:02:00,39.0,29.0,-100.00,SSE,165,4.0,9.0,66,-99.99,,,-99.99,,2013-02-10 17:02:00,
2013-02-10 12:11:00,40.0,29.0,-100.00,SSE,165,5.0,7.0,63,-99.99,,,-99.99,,2013-02-10 17:11:00,
2013-02-10 12:22:00,42.0,29.0,-100.00,SSE,155,4.0,7.0,61,-99.99,,,-99.99,,2013-02-10 17:22:00,
2013-02-10 12:32:00,42.0,29.0,-100.00,South,190,5.0,9.0,59,-99.99,,,-99.99,,2013-02-10 17:32:00,
2013-02-10 12:42:00,43.0,28.0,-100.00,South,185,7.0,11.0,56,-99.99,,,-99.99,,2013-02-10 17:42:00,
2013-02-10 12:52:00,43.0,28.0,-100.00,SSE,155,6.0,10.0,55,-99.99,,,-99.99,,2013-02-10 17:52:00,
2013-02-10 13:02:00,44.0,28.0,-100.00,South,170,9.0,13.0,54,-99.99,,,-99.99,,2013-02-10 18:02:00,
2013-02-10 13:12:00,44.0,29.0,-100.00,South,180,7.0,11.0,54,-99.99,,,-99.99,,2013-02-10 18:12:00,
2013-02-10 13:22:00,44.0,28.0,-100.00,South,170,7.0,11.0,54,-99.99,,,-99.99,,2013-02-10 18:22:00,
2013-02-10 13:32:00,43.0,28.0,-100.00,South,175,7.0,14.0,55,-99.99,,,-99.99,,2013-02-10 18:32:00,
2013-02-10 13:42:00,43.0,29.0,-100.00,South,180,8.0,12.0,57,-99.99,,,-99.99,,2013-02-10 18:42:00,
2013-02-10 13:52:00,43.0,29.0,-100.00,South,185,9.0,16.0,58,-99.99,,,-99.99,,2013-02-10 18:52:00,
2013-02-10 14:02:00,43.0,29.0,-100.00,South,185,9.0,16.0,58,-99.99,,,-99.99,,2013-02-10 19:02:00,
2013-02-10 14:12:00,43.0,30.0,-100.00,South,170,7.0,11.0,60,-99.99,,,-99.99,,2013-02-10 19:12:00,
2013-02-10 14:22:00,43.0,30.0,-100.00,South,170,7.0,11.0,60,-99.99,,,-99.99,,2013-02-10 19:22:00,
2013-02-10 14:32:00,43.0,31.0,-100.00,South,180,5.0,7.0,61,-99.99,,,-99.99,,2013-02-10 19:32:00,
2013-02-10 14:42:00,44.0,31.0,-100.00,South,170,4.0,7.0,61,-99.99,,,-99.99,,2013-02-10 19:42:00,
2013-02-10 14:52:00,44.0,31.0,-100.00,SE,135,4.0,7.0,62,-99.99,,,-99.99,,2013-02-10 19:52:00,
2013-02-10 15:02:00,44.0,32.0,-100.00,ESE,120,4.0,7.0,62,-99.99,,,-99.99,,2013-02-10 20:02:00,
2013-02-10 15:11:00,44.0,32.0,-100.00,SE,135,5.0,7.0,62,-99.99,,,-99.99,,2013-02-10 20:11:00,
2013-02-10 15:22:00,44.0,32.0,-100.00,SE,130,4.0,7.0,63,-99.99,,,-99.99,,2013-02-10 20:22:00,
2013-02-10 15:32:00,44.0,33.0,-100.00,SSE,150,3.0,7.0,64,-99.99,,,-99.99,,2013-02-10 20:32:00,
2013-02-10 15:42:00,44.0,33.0,-100.00,SSE,150,6.0,9.0,65,-99.99,,,-99.99,,2013-02-10 20:42:00,
2013-02-10 15:52:00,44.0,33.0,-100.00,SE,145,7.0,11.0,66,-99.99,,,-99.99,,2013-02-10 20:52:00,
2013-02-10 16:02:00,44.0,33.0,-100.00,SSE,155,6.0,11.0,66,-99.99,,,-99.99,,2013-02-10 21:02:00,
2013-02-10 16:11:00,44.0,33.0,-100.00,SSE,150,6.0,9.0,66,-99.99,,,-99.99,,2013-02-10 21:11:00,
2013-02-10 16:22:00,44.0,33.0,-100.00,SSE,160,4.0,7.0,67,-99.99,,,-99.99,,2013-02-10 21:22:00,
2013-02-10 16:32:00,43.0,33.0,-100.00,SSE,150,5.0,7.0,67,-99.99,,,-99.99,,2013-02-10 21:32:00,
2013-02-10 16:42:00,43.0,34.0,-100.00,SE,145,5.0,7.0,68,-99.99,,,-99.99,,2013-02-10 21:42:00,
2013-02-10 16:52:00,43.0,33.0,-100.00,SSE,150,6.0,9.0,68,-99.99,,,-99.99,,2013-02-10 21:52:00,
2013-02-10 17:02:00,43.0,33.0,-100.00,SSE,160,6.0,10.0,66,-99.99,,,-99.99,,2013-02-10 22:02:00,
2013-02-10 17:11:00,44.0,33.0,-100.00,SE,145,4.0,11.0,65,-99.99,,,-99.99,,2013-02-10 22:11:00,
2013-02-10 17:22:00,43.0,32.0,-100.00,SSE,155,6.0,12.0,64,-99.99,,,-99.99,,2013-02-10 22:22:00,
2013-02-10 17:32:00,43.0,32.0,-100.00,SSE,160,6.0,12.0,63,-99.99,,,-99.99,,2013-02-10 22:32:00,
2013-02-10 17:42:00,43.0,31.0,-100.00,SSE,165,6.0,11.0,62,-99.99,,,-99.99,,2013-02-10 22:42:00,
2013-02-10 17:52:00,43.0,31.0,-100.00,South,170,6.0,9.0,62,-99.99,,,-99.99,,2013-02-10 22:52:00,
2013-02-10 18:02:00,43.0,31.0,-100.00,South,170,6.0,11.0,62,-99.99,,,-99.99,,2013-02-10 23:02:00,
2013-02-10 18:11:00,43.0,31.0,-100.00,South,180,4.0,8.0,62,-99.99,,,-99.99,,2013-02-10 23:11:00,
2013-02-10 18:22:00,43.0,31.0,-100.00,South,170,4.0,7.0,63,-99.99,,,-99.99,,2013-02-10 23:22:00,
2013-02-10 18:32:00,43.0,31.0,-100.00,SE,145,6.0,9.0,63,-99.99,,,-99.99,,2013-02-10 23:32:00,
2013-02-10 18:42:00,43.0,32.0,-100.00,SE,135,6.0,11.0,63,-99.99,,,-99.99,,2013-02-10 23:42:00,
2013-02-10 18:52:00,43.0,32.0,-100.00,SSE,160,4.0,11.0,64,-99.99,,,-99.99,,2013-02-10 23:52:00,
2013-02-10 19:02:00,43.0,33.0,-100.00,South,175,6.0,11.0,66,-99.99,,,-99.99,,2013-02-11 00:02:00,
2013-02-10 19:11:00,42.0,33.0,-100.00,SE,135,6.0,9.0,68,-99.99,,,-99.99,,2013-02-11 00:11:00,
2013-02-10 19:22:00,42.0,33.0,-100.00,SSE,165,6.0,10.0,69,-99.99,,,-99.99,,2013-02-11 00:22:00,
2013-02-10 19:32:00,42.0,33.0,-100.00,SSE,150,6.0,8.0,69,-99.99,,,-99.99,,2013-02-11 00:32:00,
2013-02-10 19:42:00,42.0,33.0,-100.00,SSE,165,5.0,9.0,69,-99.99,,,-99.99,,2013-02-11 00:42:00,
2013-02-10 19:51:00,43.0,33.0,-100.00,South,170,5.0,10.0,69,-99.99,,,-99.99,,2013-02-11 00:51:00,
2013-02-10 20:01:00,43.0,33.0,-100.00,South,180,6.0,9.0,69,-99.99,,,-99.99,,2013-02-11 01:01:00,
2013-02-10 20:11:00,42.0,35.0,-100.00,SE,140,6.0,11.0,74,-99.99,,,-99.99,,2013-02-11 01:11:00,
2013-02-10 20:21:00,42.0,36.0,-100.00,SE,145,6.0,12.0,78,-99.99,,,-99.99,,2013-02-11 01:21:00,
2013-02-10 20:32:00,42.0,37.0,-100.00,SSE,150,7.0,13.0,80,-99.99,,,-99.99,,2013-02-11 01:32:00,
2013-02-10 20:42:00,42.0,37.0,-100.00,SSE,150,6.0,11.0,81,-99.99,,,-99.99,,2013-02-11 01:42:00,
2013-02-10 20:52:00,43.0,37.0,-100.00,SSE,155,9.0,14.0,80,-99.99,,,-99.99,,2013-02-11 01:52:00,
2013-02-10 21:01:00,43.0,37.0,-100.00,SSE,160,9.0,13.0,77,-99.99,,,-99.99,,2013-02-11 02:01:00,
2013-02-10 21:11:00,44.0,36.0,-100.00,South,170,9.0,12.0,74,-99.99,,,-99.99,,2013-02-11 02:11:00,
2013-02-10 21:21:00,44.0,36.0,-100.00,South,180,8.0,15.0,73,-99.99,,,-99.99,,2013-02-11 02:21:00,
2013-02-10 21:32:00,44.0,36.0,-100.00,SSE,165,7.0,13.0,72,-99.99,,,-99.99,,2013-02-11 02:32:00,
2013-02-10 21:42:00,45.0,35.0,-100.00,South,175,11.0,19.0,69,-99.99,,,-99.99,,2013-02-11 02:42:00,
2013-02-10 21:52:00,46.0,36.0,-100.00,South,190,12.0,19.0,67,-99.99,,,-99.99,,2013-02-11 02:52:00,
2013-02-10 22:02:00,46.0,36.0,-100.00,South,190,14.0,20.0,67,-99.99,,,-99.99,,2013-02-11 03:02:00,
2013-02-10 22:11:00,46.0,36.0,-100.00,South,185,14.0,21.0,67,-99.99,,,-99.99,,2013-02-11 03:11:00,
2013-02-10 22:21:00,46.0,37.0,-100.00,South,185,15.0,22.0,69,-99.99,,,-99.99,,2013-02-11 03:21:00,
2013-02-10 22:32:00,46.0,37.0,-100.00,South,180,12.0,21.0,71,-99.99,,,-99.99,,2013-02-11 03:32:00,
2013-02-10 22:42:00,46.0,38.0,-100.00,SSW,200,14.0,20.0,73,-99.99,,,-99.99,,2013-02-11 03:42:00,
2013-02-10 22:52:00,45.0,38.0,-100.00,SSW,200,12.0,19.0,75,-99.99,,,-99.99,,2013-02-11 03:52:00,
2013-02-10 23:02:00,46.0,39.0,-100.00,SSW,195,14.0,20.0,79,-99.99,,,-99.99,,2013-02-11 04:02:00,
2013-02-10 23:11:00,45.0,40.0,-100.00,SSW,195,12.0,19.0,82,-99.99,,,-99.99,,2013-02-11 04:11:00,
2013-02-10 23:21:00,45.0,41.0,-100.00,SSW,195,12.0,19.0,85,-99.99,,,-99.99,,2013-02-11 04:21:00,
2013-02-10 23:32:00,45.0,42.0,-100.00,SSW,205,11.0,17.0,88,-99.99,,,-99.99,,2013-02-11 04:32:00,
2013-02-10 23:42:00,45.0,43.0,-100.00,South,190,10.0,17.0,90,-99.99,,,-99.99,,2013-02-11 04:42:00,
2013-02-10 23:51:00,45.0,43.0,-100.00,SSW,200,12.0,17.0,92,-99.99,,,-99.99,,2013-02-11 04:51:00,